This demonstration page uses our WeatherBlox Daily Observations layout. Learn more.

Left ArrowRight Arrow

34.02893, -84.19858

Hourly Observations for August 21, 2022

Temp ( °F °C ) Dew Point ( °F °C ) Humidity (%) Winds ( mph kmh ) Pressure ( in mb ) Visibility ( mi km ) Precip ( " mm )
12:04 am 00:04 Cloudy with Thunderstorms 70 21.1 69 20.6 97 97 S 15 24 30.14 1021 4 6 0.03 0.76
12:13 am 00:13 Cloudy with Strong Thunderstorms 70 21.1 69 20.6 97 97 S 12 19 30.14 1021 1 2 0.34 8.64
12:29 am 00:29 Cloudy with Nearby Thunderstorms 70 21.1 69 20.6 97 97 SSW 5 7 30.13 1020 2 3 0.52 13.21
12:34 am 00:34 Cloudy with Nearby Thunderstorms 70 21.1 69 20.6 97 97 Calm 30.13 1020 4 6 0.52 13.21
12:53 am 00:53 Mostly Clear 70 21.1 69 20.6 97 97 WNW 3 6 30.09 1019 10 16 0.52 13.21
1:53 am 01:53 Mostly Cloudy 70 21.1 69 20.6 97 97 SSE 7 11 30.09 1019 10 16 0.01 0.25
2:53 am 02:53 Partly Cloudy 70 21.1 69 20.6 97 97 Calm 30.09 1019 10 16 0.01 0.13
3:53 am 03:53 Partly Cloudy 69 20.6 68 20 96 96 S 6 9 30.09 1019 10 16 0.00 0.00
4:06 am 04:06 Partly Cloudy 69 20.6 68 20 96 96 SSE 3 6 30.10 1019 10 16 0.00 0.00
4:28 am 04:28 Mostly Cloudy 69 20.6 68 20 96 96 SSE 3 6 30.09 1019 10 16 0.00 0.00
4:53 am 04:53 Cloudy 69 20.6 68 20 96 96 S 3 6 30.06 1018 10 16 0.00 0.00
5:53 am 05:53 Cloudy 70 21.1 69 20.6 97 97 Calm 30.06 1018 9 14 0.00 0.00
6:45 am 06:45 Cloudy 70 21.1 69 20.6 97 97 Calm 30.09 1019 10 16 0.00 0.00
6:53 am 06:53 Mostly Cloudy 70 21.1 69 20.6 97 97 Calm 30.07 1018 8 13 0.00 0.00
7:53 am 07:53 Mostly Cloudy 70 21.1 69 20.6 97 97 Calm 30.09 1019 9 14 0.00 0.00
8:53 am 08:53 Cloudy with Mist and Fog 71 21.7 69 20.6 93 93 WSW 3 6 30.09 1019 4 6 0.00 0.00
9:53 am 09:53 Cloudy 73 22.8 70 21.1 90 90 W 3 6 30.09 1019 10 16 0.00 0.00
10:53 am 10:53 Cloudy 75 23.9 71 21.7 88 88 SW 7 11 30.11 1020 10 16 0.00 0.00
11:01 am 11:01 Cloudy 75 23.9 71 21.7 88 88 SW 8 13 30.11 1020 10 16 0.00 0.00
11:53 am 11:53 Cloudy 78 25.6 71 21.7 79 79 SSW 8 13 30.09 1019 10 16 0.00 0.00
12:00 pm 12:00 Cloudy 77 25 70 21.1 79 79 SSW 12 19 30.09 1019 10 16 0.00 0.00
12:26 pm 12:26 Partly Cloudy 80 26.7 71 21.7 74 74 SW 9 15 30.07 1018 10 16 0.00 0.00
12:53 pm 12:53 Partly Cloudy 80 26.7 70 21.1 71 71 W 9 15 30.07 1018 10 16 0.00 0.00
1:00 pm 13:00 Mostly Cloudy 80 26.7 70 21.1 71 71 SW 8 13 30.07 1018 10 16 0.00 0.00
1:53 pm 13:53 Mostly Cloudy 82 27.8 71 21.7 69 69 VRB 7 11 30.05 1018 10 16 0.00 0.00
2:27 pm 14:27 Mostly Cloudy 82 27.8 71 21.7 69 69 SSW 8 13 30.04 1017 10 16 0.00 0.00
2:53 pm 14:53 Mostly Cloudy 83 28.3 71 21.7 67 67 SW 7 11 30.03 1017 10 16 0.00 0.00
3:00 pm 15:00 Mostly Cloudy 82 27.8 70 21.1 67 67 WSW 8 13 30.02 1017 10 16 0.00 0.00
3:53 pm 15:53 Mostly Sunny 84 28.9 72 22.2 67 67 WSW 8 13 30.00 1016 10 16 0.00 0.00
4:53 pm 16:53 Partly Cloudy 82 27.8 70 21.1 67 67 N 13 20 29.98 1015 10 16 0.00 0.00
5:09 pm 17:09 Mostly Cloudy 78 25.6 70 21.1 76 76 NE 5 7 30.00 1016 10 16 0.00 0.00
5:53 pm 17:53 Partly Cloudy 79 26.1 72 22.2 79 79 Calm 29.98 1015 10 16 0.00 0.00
6:53 pm 18:53 Mostly Cloudy 80 26.7 74 23.3 82 82 NNE 3 6 29.99 1016 10 16 0.00 0.00
7:53 pm 19:53 Sunny 79 26.1 72 22.2 79 79 Calm 29.98 1015 10 16 0.01 0.13
8:53 pm 20:53 Clear 75 23.9 74 23.3 96 96 Calm 30.00 1016 8 13 0.00 0.00
9:53 pm 21:53 Clear 74 23.3 72 22.2 94 94 Calm 30.02 1017 9 14 0.00 0.00
10:53 pm 22:53 Clear 74 23.3 73 22.8 97 97 Calm 30.02 1017 10 16 0.00 0.00
11:53 pm 23:53 Mostly Clear 75 23.9 73 22.8 94 94 Calm 30.00 1016 10 16 0.00 0.00

Powered by AerisWeather